When you browse on this site, cookies collect data to enhance your experience and personalize the content and advertising you see.
Visit our Privacy Policy to learn more. By continuing to use the site, you agree to this use of cookies and data.
  • In Schweiz
  • Länderverzeichnis
  • Für 7 Tage
  • Wassertemperatur
  • Satellitenkarten
  • Wetterkarte
  • Widgets
  • user-avatar
    Anmelden

    Stündliche Wetter Goldene Küste

    Heute, 24 Mai, Freitag

    Zeit Temperatur Niederschläge Wind Luftdruck Luftfeuchtigkeit
    00:00 +17°C° 0.1 mm 2 m/S 764 mmHg 91%
    01:00 +17°C° 0.1 mm 2 m/S 764 mmHg 91%
    02:00 +16°C° 0 mm 2 m/S 764 mmHg 92%
    03:00 +16°C° 0 mm 3 m/S 764 mmHg 93%
    04:00 +16°C° 0 mm 3 m/S 763 mmHg 93%
    05:00 +16°C° 0 mm 3 m/S 763 mmHg 93%
    06:00 +16°C° 0 mm 3 m/S 764 mmHg 92%
    07:00 +16°C° 0 mm 3 m/S 764 mmHg 92%
    08:00 +18°C° 0 mm 3 m/S 764 mmHg 81%
    09:00 +21°C° 0 mm 2 m/S 763 mmHg 71%
    10:00 +24°C° 0 mm 3 m/S 763 mmHg 61%
    11:00 +24°C° 0.1 mm 3 m/S 763 mmHg 60%
    12:00 +25°C° 0.1 mm 3 m/S 762 mmHg 60%
    13:00 +25°C° 0.1 mm 3 m/S 762 mmHg 59%
    14:00 +24°C° 0.2 mm 3 m/S 762 mmHg 65%
    15:00 +22°C° 0.2 mm 3 m/S 762 mmHg 71%
    16:00 +21°C° 0 mm 3 m/S 761 mmHg 78%
    17:00 +20°C° 0.2 mm 2 m/S 762 mmHg 82%
    18:00 +19°C° 0.2 mm 2 m/S 762 mmHg 85%
    19:00 +18°C° 0.2 mm 2 m/S 762 mmHg 88%
    20:00 +18°C° 0.1 mm 2 m/S 762 mmHg 89%
    21:00 +17°C° 0.1 mm 2 m/S 762 mmHg 90%
    22:00 +18°C° 0 mm 1 m/S 762 mmHg 90%
    23:00 +17°C° 0.1 mm 2 m/S 762 mmHg 91%

    Morgen, 25 Mai, Samstag

    Zeit Temperatur Niederschläge Wind Luftdruck Luftfeuchtigkeit
    00:00 +16°C° 0.1 mm 2 m/S 762 mmHg 92%
    01:00 +16°C° 0.1 mm 2 m/S 762 mmHg 93%
    02:00 +16°C° 0.1 mm 2 m/S 762 mmHg 93%
    03:00 +16°C° 0.1 mm 2 m/S 762 mmHg 94%
    04:00 +16°C° 0.1 mm 2 m/S 762 mmHg 94%
    05:00 +16°C° 0 mm 2 m/S 762 mmHg 93%
    06:00 +16°C° 0 mm 2 m/S 762 mmHg 93%
    07:00 +16°C° 0 mm 2 m/S 762 mmHg 92%
    08:00 +18°C° 0 mm 2 m/S 762 mmHg 82%
    09:00 +22°C° 0 mm 1 m/S 762 mmHg 71%
    10:00 +24°C° 0 mm 1 m/S 762 mmHg 61%
    11:00 +25°C° 0 mm 1 m/S 761 mmHg 57%
    12:00 +25°C° 0 mm 1 m/S 761 mmHg 53%
    13:00 +26°C° 0 mm 1 m/S 760 mmHg 49%
    14:00 +25°C° 0 mm 1 m/S 760 mmHg 56%
    15:00 +24°C° 0 mm 2 m/S 760 mmHg 64%
    16:00 +23°C° 0 mm 2 m/S 759 mmHg 71%
    17:00 +21°C° 0.1 mm 2 m/S 760 mmHg 77%
    18:00 +20°C° 0.1 mm 1 m/S 760 mmHg 83%
    19:00 +19°C° 0.1 mm 1 m/S 760 mmHg 89%
    20:00 +19°C° 0.1 mm 1 m/S 760 mmHg 89%
    21:00 +19°C° 0.1 mm 1 m/S 760 mmHg 89%
    22:00 +19°C° 0.1 mm 1 m/S 760 mmHg 90%
    23:00 +18°C° 0 mm 1 m/S 760 mmHg 90%

    übermorgen, 26 Mai, Sonntag

    Zeit Temperatur Niederschläge Wind Luftdruck Luftfeuchtigkeit
    00:00 +18°C° 0 mm 1 m/S 760 mmHg 91%
    01:00 +17°C° 0 mm 2 m/S 760 mmHg 92%
    02:00 +17°C° 0 mm 2 m/S 760 mmHg 92%
    03:00 +16°C° 0 mm 2 m/S 760 mmHg 92%
    04:00 +16°C° 0 mm 2 m/S 759 mmHg 92%
    05:00 +16°C° 0 mm 3 m/S 759 mmHg 92%
    06:00 +14°C° 0 mm 3 m/S 760 mmHg 91%
    07:00 +14°C° 0 mm 3 m/S 760 mmHg 90%
    08:00 +18°C° 0 mm 2 m/S 760 mmHg 78%
    09:00 +20°C° 0 mm 2 m/S 760 mmHg 65%
    10:00 +23°C° 0 mm 2 m/S 760 mmHg 53%
    11:00 +25°C° 0 mm 2 m/S 759 mmHg 46%
    12:00 +26°C° 0 mm 2 m/S 758 mmHg 39%
    13:00 +27°C° 0 mm 2 m/S 758 mmHg 32%
    14:00 +26°C° 0 mm 2 m/S 757 mmHg 37%
    15:00 +26°C° 0 mm 2 m/S 757 mmHg 41%
    16:00 +25°C° 0 mm 2 m/S 757 mmHg 46%
    17:00 +23°C° 0 mm 2 m/S 757 mmHg 53%
    18:00 +20°C° 0 mm 2 m/S 758 mmHg 60%
    19:00 +18°C° 0 mm 2 m/S 758 mmHg 67%
    20:00 +18°C° 0 mm 2 m/S 758 mmHg 69%
    21:00 +18°C° 0 mm 2 m/S 758 mmHg 72%
    22:00 +17°C° 0 mm 3 m/S 759 mmHg 74%
    23:00 +17°C° 0 mm 2 m/S 758 mmHg 72%

    27 Mai, Montag

    Zeit Temperatur Niederschläge Wind Luftdruck Luftfeuchtigkeit
    00:00 +17°C° 0 mm 2 m/S 758 mmHg 70%
    01:00 +16°C° 0 mm 2 m/S 758 mmHg 68%
    02:00 +16°C° 0 mm 2 m/S 758 mmHg 65%
    03:00 +16°C° 0 mm 2 m/S 757 mmHg 61%
    04:00 +16°C° 0 mm 2 m/S 757 mmHg 57%
    05:00 +16°C° 0 mm 3 m/S 757 mmHg 57%
    06:00 +16°C° 0 mm 3 m/S 758 mmHg 56%
    07:00 +14°C° 0 mm 3 m/S 758 mmHg 55%
    08:00 +18°C° 0 mm 3 m/S 758 mmHg 49%
    09:00 +21°C° 0 mm 3 m/S 758 mmHg 44%
    10:00 +25°C° 0 mm 3 m/S 758 mmHg 38%
    11:00 +26°C° 0 mm 4 m/S 757 mmHg 35%
    12:00 +27°C° 0 mm 4 m/S 756 mmHg 33%
    13:00 +28°C° 0 mm 4 m/S 755 mmHg 30%
    14:00 +27°C° 0 mm 4 m/S 755 mmHg 33%
    15:00 +26°C° 0 mm 4 m/S 755 mmHg 37%
    16:00 +25°C° 0 mm 4 m/S 755 mmHg 40%
    17:00 +22°C° 0 mm 4 m/S 755 mmHg 39%
    18:00 +20°C° 0 mm 5 m/S 756 mmHg 37%
    19:00 +17°C° 0 mm 5 m/S 756 mmHg 36%
    20:00 +16°C° 0 mm 5 m/S 757 mmHg 39%
    21:00 +15°C° 0 mm 4 m/S 758 mmHg 41%
    22:00 +14°C° 0 mm 4 m/S 758 mmHg 43%
    23:00 +13°C° 0 mm 4 m/S 758 mmHg 47%

    28 Mai, Dienstag

    Zeit Temperatur Niederschläge Wind Luftdruck Luftfeuchtigkeit
    00:00 +13°C° 0 mm 4 m/S 758 mmHg 50%
    01:00 +12°C° 0 mm 4 m/S 758 mmHg 54%
    02:00 +12°C° 0 mm 3 m/S 758 mmHg 57%
    03:00 +11°C° 0 mm 3 m/S 758 mmHg 61%
    04:00 +11°C° 0 mm 3 m/S 758 mmHg 64%
    05:00 +10°C° 0 mm 3 m/S 759 mmHg 65%
    06:00 +10°C° 0 mm 3 m/S 759 mmHg 66%
    07:00 +10°C° 0 mm 3 m/S 760 mmHg 67%
    08:00 +12°C° 0 mm 3 m/S 760 mmHg 57%
    09:00 +15°C° 0 mm 2 m/S 760 mmHg 46%
    10:00 +18°C° 0 mm 2 m/S 760 mmHg 36%
    11:00 +19°C° 0 mm 2 m/S 759 mmHg 32%
    12:00 +22°C° 0 mm 1 m/S 759 mmHg 29%
    13:00 +21°C° 0 mm 0 m/S 758 mmHg 26%
    14:00 +23°C° 0 mm 1 m/S 758 mmHg 30%
    15:00 +21°C° 0 mm 2 m/S 757 mmHg 35%
    16:00 +20°C° 0 mm 2 m/S 757 mmHg 39%
    17:00 +18°C° 0 mm 2 m/S 758 mmHg 44%
    18:00 +16°C° 0 mm 2 m/S 758 mmHg 49%
    19:00 +14°C° 0 mm 2 m/S 759 mmHg 54%
    20:00 +14°C° 0 mm 2 m/S 759 mmHg 54%
    21:00 +13°C° 0 mm 2 m/S 759 mmHg 55%
    22:00 +11°C° 0 mm 3 m/S 759 mmHg 56%
    23:00 +11°C° 0 mm 3 m/S 759 mmHg 56%

    29 Mai, Mittwoch

    Zeit Temperatur Niederschläge Wind Luftdruck Luftfeuchtigkeit
    00:00 +10°C° 0 mm 3 m/S 759 mmHg 56%
    01:00 +10°C° 0 mm 3 m/S 758 mmHg 56%
    02:00 +9°C° 0 mm 3 m/S 758 mmHg 57%
    03:00 +9°C° 0 mm 3 m/S 758 mmHg 58%
    04:00 +9°C° 0 mm 3 m/S 758 mmHg 60%
    05:00 +9°C° 0 mm 3 m/S 758 mmHg 61%
    06:00 +9°C° 0 mm 3 m/S 759 mmHg 62%
    07:00 +9°C° 0 mm 3 m/S 759 mmHg 63%
    08:00 +11°C° 0 mm 3 m/S 759 mmHg 56%
    09:00 +14°C° 0 mm 3 m/S 759 mmHg 49%
    10:00 +18°C° 0 mm 3 m/S 759 mmHg 43%
    11:00 +19°C° 0 mm 3 m/S 758 mmHg 39%
    12:00 +21°C° 0 mm 3 m/S 757 mmHg 35%
    13:00 +22°C° 0 mm 3 m/S 756 mmHg 31%
    14:00 +22°C° 0 mm 3 m/S 756 mmHg 33%
    15:00 +21°C° 0 mm 3 m/S 756 mmHg 35%
    16:00 +21°C° 0 mm 3 m/S 756 mmHg 38%
    17:00 +19°C° 0 mm 3 m/S 756 mmHg 41%
    18:00 +17°C° 0 mm 3 m/S 757 mmHg 44%
    19:00 +14°C° 0 mm 3 m/S 757 mmHg 47%
    20:00 +13°C° 0 mm 3 m/S 758 mmHg 49%
    21:00 +13°C° 0 mm 3 m/S 758 mmHg 51%
    22:00 +12°C° 0 mm 3 m/S 758 mmHg 53%
    23:00 +12°C° 0 mm 3 m/S 758 mmHg 53%
    Mehr zeigen